Regional Weather Roundup
Issued by NWS

Home | Current Version | Previous Version | Graphics & Text | Print | Product List | Glossary On
Versions: 1 2 3 4 5 6 7 8 9 10 11 12 13 14 15 16 17 18 19 20 21 22 23 24 25 26 27 28
000
ASUS45 KCYS 180210
RWRWY

WYOMING REGIONAL WEATHER ROUNDUP
NATIONAL WEATHER SERVICE CHEYENNE WY
800 PM MDT THU AUG 17 2017

NOTE:  "FAIR" INDICATES FEW OR NO CLOUDS BELOW 12,000 FEET
WITH NO SIGNIFICANT WEATHER AND/OR OBSTRUCTIONS TO VISIBILITY.

WYZ001-180300-
YELLOWSTONE NATIONAL PARK

CITY           SKY/WX    TMP DP  RH WIND       PRES   REMARKS
LK YELLOWSTONE   N/A     61  34  36 VRB3      30.33R
W YELLOWSTONE  NOT AVBL

$$
WYZ002>013-054>058-071-098>099-180300-
NORTHERN WYOMING

CITY           SKY/WX    TMP DP  RH WIND       PRES   REMARKS
JACKSON        FAIR      72  30  21 SW5       30.24R
CODY           FAIR      71  42  35 N3        30.12R
GREYBULL       FAIR      81  32  17 NW7       30.00R
WORLAND        FAIR      75  43  31 N7        30.01R
SHERIDAN       FAIR      65  48  54 W6        30.02S
BUFFALO        FAIR      71  39  31 W3        30.10S
GILLETTE       FAIR      65  48  54 W7        30.04R
HULETT         FAIR      66  45  45 SW5       30.04R
NEWCASTLE      FAIR      66  41  39 NW7       30.03R

$$
WYZ014>020-022>026-101>103-180300-
CENTRAL WYOMING

CITY           SKY/WX    TMP DP  RH WIND       PRES   REMARKS
BIG PINEY      FAIR      67  33  28 N10       30.28R
PINEDALE       FAIR      66  32  28 W12       30.29R
DUBOIS         FAIR      66  30  26 NW13      30.25R
LANDER           N/A    N/A N/A N/A MISG      30.08R
RIVERTON       FAIR      77  33  20 N17       30.10R
CASPER         FAIR      70  44  39 E9        30.10R
DOUGLAS        FAIR      69  45  41 NE10      30.09F

$$
WYZ021-027>030-104>119-180300-
SOUTHERN WYOMING

CITY           SKY/WX    TMP DP  RH WIND       PRES   REMARKS
EVANSTON       FAIR      71  34  25 W12       30.29R
KEMMERER         N/A    N/A N/A N/A W9        30.30R
FORT BRIDGER   FAIR      73  31  21 W14       30.30S
ROCK SPRINGS   FAIR      73  27  18 NW16G25   30.22R
RAWLINS        FAIR      72  30  21 W12       30.20R
SARATOGA       FAIR      66  37  34 SW15G21   30.24R
LARAMIE        FAIR      66  36  32 W17G23    30.23R
CHEYENNE       FAIR      73  38  27 NW7       30.15R
TORRINGTON     FAIR      73  42  32 NE14      30.00R
PINE BLUFFS    FAIR      70  43  37 NW7       30.09R

$$




USA.gov is the U.S. government's official web portal to all federal, state and local government web resources and services.